EW0641 Weather Reports


Display with metric or nautical units.
time (UTC)temp
F
wind
direction
speed
MPH
gust
MPH
rain 1hr
in
rain 24hr
in
rain mn
in
humidity
%
barometer
mb
20260508204503 62 215 0.0 0.0 0.00 0.00 0.00 57 1007.4
20260508203002 63 206 0.0 0.0 0.00 0.00 0.00 57 1007.6
20260508201610 63 198 0.0 0.0 0.00 0.00 0.00 56 1007.9
20260508200057 63 213 0.0 0.0 0.00 0.00 0.00 53 1008.1
20260508194621 61 224 0.0 0.0 0.00 0.00 0.00 57 1008.2
20260508193052 62 234 0.0 0.0 0.00 0.00 0.00 55 1008.7
20260508191551 62 205 0.0 0.0 0.00 0.00 0.00 55 1008.8
20260508190049 61 254 0.0 0.0 0.00 0.00 0.00 54 1009.0
20260508184548 62 240 0.0 0.0 0.00 0.00 0.00 54 1009.1
20260508183046 63 248 0.0 0.0 0.00 0.00 0.00 50 1009.2
20260508181605 62 163 0.0 0.0 0.00 0.00 0.00 49 1009.3
20260508180050 61 234 0.0 0.0 0.00 0.00 0.00 47 1009.7
20260508174544 63 221 0.0 0.0 0.00 0.00 0.00 47 1009.8
20260508173041 62 284 0.0 0.0 0.00 0.00 0.00 49 1010.1
20260508171536 60 5 0.0 0.0 0.00 0.00 0.00 46 1010.4
20260508170034 61 207 0.0 0.0 0.00 0.00 0.00 47 1010.7
20260508164530 60 232 0.0 0.0 0.00 0.00 0.00 48 1010.8
20260508163029 60 304 0.0 0.0 0.00 0.00 0.00 46 1011.1
20260508161530 59 5 0.0 0.0 0.00 0.00 0.00 51 1011.2
20260508160028 59 24 0.0 0.0 0.00 0.00 0.00 56 1011.2
20260508154520 57 29 0.0 0.0 0.00 0.00 0.00 54 1011.3
20260508153023 57 17 0.0 0.0 0.00 0.00 0.00 56 1011.4
20260508151518 56 51 0.0 0.0 0.00 0.00 0.00 55 1011.5
20260508150016 56 13 0.0 0.0 0.00 0.00 0.00 56 1011.7
20260508144513 55 56 0.0 0.0 0.00 0.00 0.00 58 1011.7
20260508143020 55 20 0.0 0.0 0.00 0.00 0.00 60 1011.8
20260508141511 54 26 0.0 0.0 0.00 0.00 0.00 63 1012.0
20260508140010 54 143 0.0 0.0 0.00 0.00 0.00 65 1012.1
20260508134508 54 143 0.0 0.0 0.00 0.00 0.00 67 1012.0
20260508133010 54 142 0.0 0.0 0.00 0.00 0.00 67 1012.1
20260508131505 53 142 0.0 0.0 0.00 0.00 0.00 71 1012.1
20260508130002 51 166 0.0 0.0 0.00 0.00 0.00 72 1012.0
20260508124501 51 163 0.0 0.0 0.00 0.00 0.00 72 1011.9
20260508123108 50 242 0.0 0.0 0.00 0.00 0.00 72 1012.0
20260508121559 50 336 0.0 0.0 0.00 0.00 0.00 74 1011.9
20260508120058 49 351 0.0 0.0 0.00 0.00 0.00 76 1011.7
20260508114557 48 351 0.0 0.0 0.00 0.00 0.00 84 1011.6
20260508113056 45 350 0.0 0.0 0.00 0.00 0.00 89 1011.4
20260508111602 43 350 0.0 0.0 0.00 0.00 0.00 89 1011.2
20260508104554 43 350 0.0 0.0 0.00 0.00 0.00 88 1011.1
20260508103053 43 350 0.0 0.0 0.00 0.00 0.00 87 1011.1
20260508101551 43 350 0.0 0.0 0.00 0.00 0.00 87 1011.0
20260508100049 44 350 0.0 0.0 0.00 0.00 0.00 86 1011.0
20260508094558 44 350 0.0 0.0 0.00 0.00 0.00 85 1011.1
20260508093050 45 350 0.0 0.0 0.00 0.00 0.00 84 1011.0
20260508091544 45 350 0.0 0.0 0.00 0.00 0.00 83 1011.0
20260508090041 46 350 0.0 0.0 0.00 0.00 0.00 82 1011.0
20260508084540 47 350 0.0 0.0 0.00 0.00 0.00 80 1011.2
20260508083039 48 350 0.0 0.0 0.00 0.00 0.00 77 1011.2
20260508081543 49 337 0.0 0.0 0.00 0.00 0.00 75 1011.1
20260508080038 49 337 0.0 0.0 0.00 0.00 0.00 75 1011.2
20260508074538 49 337 0.0 0.0 0.00 0.00 0.00 75 1011.3
20260508073039 48 253 0.0 0.0 0.00 0.00 0.00 75 1011.2
20260508071536 48 252 0.0 0.0 0.00 0.00 0.00 75 1011.2
20260508070036 47 252 0.0 0.0 0.00 0.00 0.00 77 1011.2
20260508064534 46 252 0.0 0.0 0.00 0.00 0.00 77 1011.1
20260508063032 47 252 0.0 0.0 0.00 0.00 0.00 76 1011.3
20260508061530 47 252 0.0 0.0 0.00 0.00 0.00 73 1011.3
20260508060028 48 252 0.0 0.0 0.00 0.00 0.00 71 1011.4
20260508054523 50 252 0.0 0.0 0.00 0.00 0.00 69 1011.5
20260508053020 51 252 0.0 0.0 0.00 0.00 0.00 67 1011.5
20260508051526 51 252 0.0 0.0 0.00 0.00 0.00 67 1011.7
20260508050015 51 225 0.0 0.0 0.00 0.00 0.00 67 1011.4
20260508044513 51 225 0.0 0.0 0.00 0.00 0.00 65 1011.3
20260508043014 52 229 0.0 0.0 0.00 0.00 0.00 64 1011.4
20260508041511 52 231 0.0 0.0 0.00 0.00 0.00 62 1011.3
20260508040012 52 245 0.0 0.0 0.00 0.00 0.00 60 1011.5
20260508034508 52 250 0.0 0.0 0.00 0.00 0.00 59 1011.5
20260508033049 52 250 0.0 0.0 0.00 0.00 0.00 58 1011.9
20260508031549 53 250 0.0 0.0 0.00 0.00 0.00 57 1011.9
20260508030057 54 243 0.0 0.0 0.00 0.00 0.00 53 1011.9
20260508024549 54 13 0.0 0.0 0.00 0.00 0.00 51 1011.8
20260508023048 54 336 0.0 0.0 0.00 0.00 0.00 51 1011.7
20260508021548 54 336 0.0 0.0 0.00 0.00 0.00 50 1011.6
20260508020049 53 336 0.0 0.0 0.00 0.00 0.00 50 1011.5
20260508014548 53 336 0.0 0.0 0.00 0.00 0.00 50 1011.4
20260508013046 54 336 0.0 0.0 0.00 0.00 0.00 48 1011.1
20260508011546 54 298 0.0 0.0 0.00 0.00 0.00 47 1011.0
20260508010046 54 331 0.0 0.0 0.00 0.00 0.00 47 1011.0
20260508004551 54 355 0.0 0.0 0.00 0.00 0.00 46 1010.9
20260508003046 55 355 0.0 0.0 0.00 0.00 0.00 46 1010.9
20260508001544 55 325 0.0 0.0 0.00 0.00 0.00 45 1010.8
20260508000043 55 360 0.0 0.0 0.00 0.00 0.00 44 1010.8
20260507234551 55 333 0.0 0.0 0.00 0.00 0.00 45 1010.7
20260507233043 56 292 0.0 0.0 0.00 0.00 0.00 43 1010.8
20260507231548 56 290 0.0 0.0 0.00 0.00 0.00 43 1010.8
20260507230043 56 355 0.0 0.0 0.00 0.00 0.00 44 1010.7
20260507224539 56 307 0.0 0.0 0.00 0.00 0.00 42 1011.0
20260507223039 56 304 0.0 0.0 0.00 0.00 0.00 42 1011.2
20260507221541 56 355 0.0 0.0 0.00 0.00 0.00 42 1011.1
20260507220038 56 355 0.0 0.0 0.00 0.00 0.00 42 1011.0
20260507214538 56 19 0.0 0.0 0.00 0.00 0.00 42 1011.0
20260507213037 58 302 0.0 0.0 0.00 0.00 0.00 41 1010.9
20260507211535 57 5 0.0 0.0 0.00 0.00 0.00 41 1011.0
20260507210034 57 5 0.0 0.0 0.00 0.00 0.00 41 1011.0